This is the latest recevied weather packets stored in our database for station/object F5BCB-10. If no packets are shown the sender has not sent any weather packets the latest 10 day(s).
| Time | Temp. | Humidity | Pressure | Rain* | Wind** | Luminosity | Snow |
|---|---|---|---|---|---|---|---|
| 1777452891 | 25° C | 30% | 1013.7 hPa | - | - | - | - |
| 1777451990 | 25° C | 31% | 1013.7 hPa | - | - | - | - |
| 1777451090 | 25° C | 31% | 1013.8 hPa | - | - | - | - |
| 1777450189 | 25° C | 30% | 1013.9 hPa | - | - | - | - |
| 1777449288 | 23.89° C | 30% | 1013.9 hPa | - | - | - | - |
| 1777448388 | 24.44° C | 31% | 1013.9 hPa | - | - | - | - |
| 1777447487 | 23.89° C | 30% | 1013.8 hPa | - | - | - | - |
| 1777446586 | 23.89° C | 30% | 1013.9 hPa | - | - | - | - |
| 1777445686 | 23.89° C | 29% | 1013.6 hPa | - | - | - | - |
| 1777444785 | 23.89° C | 29% | 1013.5 hPa | - | - | - | - |
| 1777443885 | 23.89° C | 29% | 1013.5 hPa | - | - | - | - |
| 1777442984 | 23.89° C | 29% | 1013.6 hPa | - | - | - | - |
| 1777442084 | 23.33° C | 28% | 1013.4 hPa | - | - | - | - |
| 1777441183 | 23.89° C | 26% | 1013.5 hPa | - | - | - | - |
| 1777440282 | 23.89° C | 27% | 1013.4 hPa | - | - | - | - |
| 1777438482 | 23.89° C | 27% | 1013.4 hPa | - | - | - | - |
| 1777437580 | 23.89° C | 27% | 1013.4 hPa | - | - | - | - |
| 1777436680 | 23.89° C | 26% | 1013.3 hPa | - | - | - | - |
| 1777435779 | 23.89° C | 27% | 1013.4 hPa | - | - | - | - |
| 1777433077 | 23.89° C | 27% | 1013.4 hPa | - | - | - | - |
| 1777423169 | 23.89° C | 28% | 1014.9 hPa | - | - | - | - |
| 1777422268 | 23.89° C | 28% | 1015.4 hPa | - | - | - | - |
| 1777420466 | 24.44° C | 28% | 1015.8 hPa | - | - | - | - |
| 1777418664 | 24.44° C | 29% | 1014.9 hPa | - | - | - | - |
| 1777415062 | 23.89° C | 29% | 1015 hPa | - | - | - | - |
* Rain since midnight (hover to see other rain measurements)
** Current wind speed in m/s (hover to see current wind gust speed)